Terminal Aerodrome Forecast
Issued by NWS Cleveland, OH

Home | Current Version | Previous Version | Graphics & Text | Print | Product List | Glossary On
Versions: 1 2 3 4 5 6 7 8 9 10 11 12 13 14 15 16 17 18 19 20 21 22 23 24 25 26 27 28
000
FTUS41 KCLE 231947 AAA
TAFCLE
TAF AMD
KCLE 231947Z 2320/2424 15011KT P6SM BKN250
     FM240200 13010KT P6SM VCSH BKN045
     FM240700 12010KT 6SM -SHRA OVC030
     FM241500 11010KT 6SM -SHRA OVC015=

USA.gov is the U.S. government's official web portal to all federal, state and local government web resources and services.